Regional Weather Roundup
Issued by NWS

Home | Current Version | Previous Version | Graphics & Text | Print | Product List | Glossary Off
Versions: 1 2 3 4 5 6 7 8 9 10 11 12 13 14 15 16 17 18 19 20 21 22 23 24 25 26 27 28 29 30 31 32 33 34 35 36 37 38 39 40 41 42 43 44 45 46 47 48 49 50

000
ASUS43 KMKX 230711
RWRWI

WISCONSIN REGIONAL WEATHER ROUNDUP
NATIONAL WEATHER SERVICE MILWAUKEE/SULLIVAN WI
200 AM CDT WED AUG 23 2017

NOTE: "FAIR" INDICATES FEW OR NO CLOUDS BELOW 12,000 FEET WITH NO
SIGNIFICANT WEATHER AND/OR OBSTRUCTIONS TO VISIBILITY.

WIZ001-002-006>008-014>016-023>028-230800-
NORTHWEST WISCONSIN

CITY           SKY/WX    TMP DP  RH WIND       PRES   REMARKS
SUPERIOR ARPT    N/A     53  51  91 NW6       30.01R
ASHLAND        PTCLDY    54  52  93 SW6       29.98S
HAYWARD        CLEAR     49  46  90 CALM      30.01S
SIREN          PTCLDY    52  48  87 NW3       30.04S
CUMBERLAND     CLEAR     54  46  76 NW7       30.03S
RICE LAKE      CLEAR     54  49  83 W3        30.04S
CHETEK         CLEAR     57  51  81 NW6       30.03R
LADYSMITH      CLEAR     56  51  84 W7        30.02S
EAU CLAIRE     CLEAR     56  49  77 W5        30.02S
MENOMONIE      CLEAR     57  50  78 W5        30.04R
NEW RICHMOND   CLEAR     53  47  79 W6        30.05S
OSCEOLA        CLEAR     52  52 100 CALM      30.07S
$$

WIZ003>005-009-010-017-018-230800-
NORTH CENTRAL WISCONSIN

CITY           SKY/WX    TMP DP  RH WIND       PRES   REMARKS
MANITOWISH WTR MOCLDY    51  51 100 NW3       29.97R
ARBOR VITAE    CLOUDY    57  55  92 NW7       29.96S
WOODRUFF       CLOUDY    57  55  92 NW7       29.96S
RHINELANDER    CLEAR     51  50  96 W7        29.97S
EAGLE RIVER    CLOUDY    54  53  99 W5        29.95R
LAND O LAKES   CLOUDY    56  53  90 NW6       29.96R
PHILLIPS       PTCLDY    53  52  97 CALM      29.99R
TOMAHAWK         N/A     50  48  95 W3        29.98S
MEDFORD        CLEAR     51  48  89 W5        30.00S
MERRILL        NOT AVBL
$$

WIZ029-030-035-036-043>047-230800-
CENTRAL WISCONSIN

CITY           SKY/WX    TMP DP  RH WIND       PRES   REMARKS
WAUSAU         CLEAR     54  50  86 W8        29.97S
MOSINEE        CLEAR     54  50  87 W7        30.00R
MARSHFIELD     CLEAR     53  48  83 W5        30.00R
STEVENS POINT  CLEAR     55  48  79 W6        29.99S
WAUPACA        CLEAR     59  50  70 W6        29.98S
WAUTOMA        CLEAR     54  50  86 W7        29.99F
WISC RAPIDS    CLEAR     55  49  80 NW6       30.01S
CAMP DOUGLAS   CLEAR     53  48  83 W8        30.01S
$$

WIZ011>013-019>022-031-037>040-048>050-230800-
NORTHEAST WISCONSIN

CITY           SKY/WX    TMP DP  RH WIND       PRES   REMARKS
ANTIGO         CLEAR     51  50  95 W8        29.97S
SHAWANO        CLEAR     60  51  71 W6        29.95S
OCONTO         CLEAR     55  51  83 W7        29.92S
STURGEON BAY   CLEAR     61  53  75 NW13      29.92S
GREEN BAY      CLEAR     57  52  83 W8        29.94S
MANITOWOC      CLEAR     60  49  66 W5        29.95S
APPLETON       CLEAR     54  46  76 W8        29.95F
CLINTONVILLE   CLEAR     55  48  76 W6        29.96S
OSHKOSH        CLEAR     58  49  72 W6        29.96F
$$

WIZ032>034-041-042-053>061-230800-
SOUTHWEST WISCONSIN

CITY           SKY/WX    TMP DP  RH WIND       PRES   REMARKS
LA CROSSE      CLEAR     63  51  65 NW6       30.03
SPARTA         CLEAR     47  46  98 CALM      30.03S
VIROQUA        CLEAR     54  51  90 W8        30.05S
BOSCOBEL       CLEAR     54  51  90 SW5       30.05S
PRAIRIE DU CHI CLEAR     58  48  68 CALM      30.06S
PLATTEVILLE    CLEAR     53  53 100 SW5       30.07S
$$

WIZ056-057-062-063-064-067-068-230800-
SOUTH CENTRAL WISCONSIN

CITY           SKY/WX    TMP DP  RH WIND       PRES   REMARKS
REEDSBURG      CLEAR     53  53 100 CALM      30.02F
BARABOO/DELLS  CLEAR     56  48  74 CALM      30.02S
LONE ROCK      CLEAR     54  52  93 W5        30.04S
MINERAL POINT  CLEAR     55  54  94 W6        30.05F
MADISON        CLEAR     58  51  78 VRB5      30.01F
MIDDLETON      CLEAR     56  52  85 W6        30.03S
WATERTOWN      CLEAR     55  53  93 SW3       30.00S
MONROE         CLEAR     55  50  82 W10       30.05S
JANESVILLE     CLEAR     55  50  82 CALM      30.03R
$$

WIZ051-052-058>065-066-070>072-230800-
SOUTHEAST WISCONSIN

CITY           SKY/WX    TMP DP  RH WIND       PRES   REMARKS
MILWAUKEE      CLEAR     63  52  67 W6        29.99S
WAUKESHA       CLEAR     55  48  76 W8        30.01S
MILWAUKEE/TIMM PTCLDY    57  46  67 W7        30.00S
RACINE         CLEAR     59  52  77 W6        30.01S
KENOSHA        CLEAR     57  51  80 W7        30.00F
FOND DU LAC    CLEAR     58  49  72 W7        29.97F
SHEBOYGAN      CLEAR     57  53  86 W6        29.96S
WEST BEND      CLEAR     57  50  77 W8        29.98S
JUNEAU         CLEAR     54  50  86 SW6       30.01S
$$

LSZ147-162-230800-
LAKE SUPERIOR

STATION/POSITION TIME  TEMP    WIND        PRES    WAVE
                       AIR SEA DIR/SP/G            HT/PER
                 (UTC) (F)     (DEG/KT/KT) (MB)    (FT/S)
W MID LAKE BUOY  0650   60 60  320/ 14/ 17 1013.1R   3/ 4
DEVILS ISLAND    0700   61     330/ 16/ 18 1014.6S
SAXON HARBOR     0630   63     320/ 12/ 17 1014.2R
$$

LMZ867-665-643>646-230800-
LAKE MICHIGAN

STATION/POSITION TIME  TEMP    WIND        PRES    WAVE
                       AIR SEA DIR/SP/G            HT/PER
                 (UTC) (F)     (DEG/KT/KT) (MB)    (FT/S)
S GREEN BAY BUOY 0700   63 70  270/ 16/ 17 1013.0
N MID LAKE BUOY  0650   63 67  300/ 19/ 23 1011.3R   3/ 4
NORTHPORT PIER   0640   63     300/ 13/ 20 1011.5S
KEWAUNEE LAKESHO 0636          280/  3/  5 1012.5S
SHEBOYGAN LAKESH 0700   61     270/  9/ 10 1014.0S
PORT WASHINGTON  0640   62     270/  5/  9 1015.6S
ATWATER BUOY     0609   65 67  260/ 10/ 12 1015.4
MILWAUKEE LAKESH 0650   64     280/  9/ 12   N/A
S MID LAKE BUOY  0650   69 71  330/ 16/ 19 1014.5S   4/ 5
KENOSHA   LAKESH 0700   62     280/ 10/ 14 1015.6
$$

TC  - TEMPERATURE IN CELSIUS
VSB - VISIBILITY IN STATUTE MILES
WCI - WIND CHILL INDEX
HX  - HEAT INDEX




USA.gov is the U.S. government's official web portal to all federal, state and local government web resources and services.